This is the latest recevied weather packets stored in our database for station/object W4OTS. If no packets are shown the sender has not sent any weather packets the latest 10 day(s).
| Time | Temp. | Humidity | Pressure | Rain* | Wind** | Luminosity | Snow |
|---|---|---|---|---|---|---|---|
| 1778089299 | 18.89° C | 99% | 1015 hPa | 0 mm | - | 258 W/m² | - |
| 1778088998 | 18.89° C | 99% | 1015.2 hPa | 0 mm | - | 350 W/m² | - |
| 1778088695 | 18.33° C | 99% | 1015.5 hPa | 0 mm | - | 280 W/m² | - |
| 1778088391 | 18.33° C | 99% | 1015.7 hPa | 0 mm | - | 228 W/m² | - |
| 1778088087 | 18.33° C | 99% | 1015.9 hPa | 0 mm | - | 242 W/m² | - |
| 1778087785 | 17.78° C | 99% | 1016.4 hPa | 0 mm | - | 295 W/m² | - |
| 1778087482 | 17.78° C | 99% | 1016.6 hPa | 0 mm | - | 160 W/m² | - |
| 1778087180 | 17.78° C | 99% | 1016.7 hPa | 0 mm | - | 150 W/m² | - |
| 1778086871 | 17.78° C | 99% | 1017.1 hPa | 0 mm | - | 170 W/m² | - |
| 1778086570 | 17.78° C | 99% | 1016.9 hPa | 1.78 mm | - | 142 W/m² | - |
| 1778086266 | 17.78° C | 99% | 1017.2 hPa | 1.78 mm | - | 89 W/m² | - |
| 1778085963 | 17.78° C | 99% | 1016.6 hPa | 4.83 mm | - | 103 W/m² | - |
| 1778085661 | 17.78° C | 98% | 1016.9 hPa | 4.32 mm | - | 108 W/m² | - |
| 1778085356 | 17.78° C | 97% | 1017.5 hPa | 1.78 mm | - | 50 W/m² | - |
| 1778085052 | 18.33° C | 96% | 1017.6 hPa | 3.05 mm | - | 80 W/m² | - |
| 1778084748 | 18.89° C | 93% | 1017.1 hPa | 3.05 mm | - | 118 W/m² | - |
| 1778084445 | 19.44° C | 90% | 1017.2 hPa | 1.78 mm | - | 72 W/m² | - |
| 1778084143 | 19.44° C | 87% | 1017.1 hPa | 0 mm | - | 73 W/m² | - |
| 1778083839 | 19.44° C | 87% | 1016.9 hPa | 0 mm | - | 128 W/m² | - |
| 1778083537 | 19.44° C | 87% | 1017 hPa | 0 mm | - | 124 W/m² | - |
| 1778083234 | 20° C | 85% | 1016.7 hPa | 0 mm | - | 82 W/m² | - |
| 1778082933 | 20° C | 82% | 1016.8 hPa | 0 mm | - | 115 W/m² | - |
| 1778081829 | 20° C | 81% | 1016.2 hPa | 0 mm | - | 101 W/m² | - |
| 1778081527 | 20° C | 81% | 1015.9 hPa | 0 mm | - | 108 W/m² | - |
| 1778081224 | 20° C | 80% | 1015.6 hPa | 0 mm | - | 140 W/m² | - |
* Rain latest hour (hover to see other rain measurements)
** Current wind speed in m/s (hover to see current wind gust speed)